Weather in Rotorua

New Zealand     38°08′19″S   176°14′09″E
temp.,
°C
wind,
m/s
gust,
m/s
humid.,
%
clouds,
%
prec.,
mm/h
press.,
hPa
HPBL,
m
11 may, tue
tue1100:00+14nnw11100100 0.3 102550
03:00+14nnw14100100 0.1 1024209
06:00+12nnw1499100 0.2 1024117
09:00+14nnw299499 0.0 1024646
12:00+18nw4857100 0.0 10221406
15:00+18nnw3869100 0.1 10201286
18:00+14nnw31095100 0.4 1020660
21:00+14nw31194100 0.1 1020893
12 may, wed
wed1200:00+15nw31294100 0.3 1019960
03:00+14nw31096100 0.3 10181041
06:00+14wnw2898100 1.1 1019856
09:00+14nw1597100 0.3 1020531
12:00+15wsw1295100 1.3 1020406
15:00+15sse239283 0.7 1020468
18:00+9se41294100 1.1 1023677
21:00+10se31182100 0.0 1025770
13 may, thu
thu1300:00+10ese31191100 0.2 1025815
03:00+9ese21094100 0.9 1025774
06:00+8se4129797 4.1 1025697
09:00+7se3129795 0.9 1027702
12:00+12ese497696 1.1 1024798
15:00+9ese2994100 0.6 1024634
18:00+9ese21095100 0.9 1023588
21:00+9ese21099100 1.0 1023616
14 may, fri
fri1400:00+10ese2119889 3.6 1022638
03:00+9ese299995 2.0 1021572
06:00+9ese2998100 2.8 1020512
09:00+9ese1697100 0.0 1019319
12:00+13ene267695 0.0 1017601
15:00+12ene2682100 0.0 1014487
18:00+10ene1794100 0.1 1013340
21:00+10ene11098100 0.1 1010489
15 may, sat
sat1500:00+12ne41499100 2.7 10061033
03:00+14nnw21099100 15.2 10021063
06:00+14wnw31096100 15.8 1002761
09:00+13w3109381 0.2 1004899
12:00+15w41280100 0.4 10041312
15:00+14w413740 0.4 10051489
18:00+10w3128143 0.4 10081135
21:00+9w3118111 0.0 10111093